Tracking 31027 objects as of 19-Jul-2025
HD Live streaming from Space Station
objects crossing your sky now

KSM1-C

Track KSM1-C now!
10-day predictions
KSM1-C is classified as:


NORAD ID: 46906
Int'l Code: 2020-081B
Perigee: 512.3 km
Apogee: 517.2 km
Inclination: 36.9 °
Period: 94.8 minutes
Semi major axis: 6885 km
RCS: Unknown
Launch date: November 7, 2020
Source: Luxembourg (LUXE)
Launch site: SRIHARIKOTA (SRI)

Uplink (MHz):
Downlink (MHz): 401.120
Beacon (MHz):
Mode: 9600bps FSK
Call sign:
Status: Active

Your satellite tracking list
NOAA 16 DEB
Track 1 satellite(s)




NASA's NSSDC Master Catalog

Two Line Element Set (TLE):
1 46906U 20081B   25199.76087633  .00005901  00000-0  27658-3 0  9998
2 46906  36.8948 306.1245 0003534 308.2325  51.8104 15.19414687258307
Source of the keplerian elements: AFSPC